Weather Roundup
Issued by NWS Chicago, IL

Home | Current Version | Previous Version | Graphics & Text | Print | Product List | Glossary On
Versions: 1 2 3 4 5 6 7 8 9 10 11 12 13 14 15 16 17 18 19 20 21 22 23 24 25 26 27 28 29 30 31 32 33 34 35 36 37 38 39 40 41 42 43 44 45 46 47 48 49 50
000
NZUS59 KLOT 030300
HRRLOT

CHICAGO AREA WEATHER ROUNDUP
NATIONAL WEATHER SERVICE CHICAGO/ROMEOVILLE IL
900 PM CST MON MAR 02 2015

NOTE: "FAIR" INDICATES FEW OR NO CLOUDS BELOW 12,000 FEET WITH NO
SIGNIFICANT WEATHER AND/OR OBSTRUCTIONS TO VISIBILITY.

* THESE STATIONS ARE NOT UNDER NWS QUALITY CONTROL. THEY ALSO MAY NOT
  REPORT WEATHER SUCH AS PRECIPITATION OR FOG.

ILZ005-006-012>014-019>023-030400-
NORTHEAST ILLINOIS

CITY           SKY/WX    TMP DP  RH WIND       PRES   REMARKS
OHARE          CLOUDY    26  15  63 S9        30.31F WCI  17
MIDWAY         CLOUDY    28  15  58 S8        30.34F WCI  20
AURORA         CLOUDY    24  15  68 S7        30.31F WCI  16
LANSING*       CLOUDY    26  17  71 S7        30.36F WCI  18
WAUKEGAN       CLOUDY    26  20  77 S7        30.31F WCI  18
DUPAGE AIRPORT CLOUDY    25  15  66 S9        30.30F WCI  15
WHEELING       CLOUDY    27  15  61 SW8       30.33F WCI  19
NORTHERLY IS     N/A     27  14  58 S12         N/A  WCI  17
$$

WIZ051-052-058>065-066-070>072-030400-
SOUTHEAST WISCONSIN

CITY           SKY/WX    TMP DP  RH WIND       PRES   REMARKS
MILWAUKEE      CLOUDY    25  15  66 S6        30.31F WCI  18
KENOSHA*       CLOUDY    26  19  74 S7        30.31F WCI  18
RACINE*        CLOUDY    27  19  72 S7        30.32F WCI  19
WAUKESHA       CLOUDY    21  14  73 S7        30.30F WCI  13
$$

INZ001>003-010>013-019-020-030400-
NORTHWEST INDIANA

CITY           SKY/WX    TMP DP  RH WIND       PRES   REMARKS
GARY*          CLOUDY    28  11  48 S8        30.35F WCI  20
MICHIGAN CITY* NOT AVBL
RENSSELAER*    NOT AVBL
$$

LMZ740>746-030400-
SOUTHERN LAKE MICHIGAN

STATION/POSITION TIME  SKY/WX   TEMP WIND        PRES    VSBY
                                AIR  DIR/SP/G
                 (UTC)          (F)  (DEG/KT/KT) (MB)    (MI)
HARRISON CRIB    0200            28  200/ 13/ 15   N/A
BURNHAM HARBOR   0300            27  200/ 11/ 13   N/A
CALUMET HARBOR   0200            27  180/  7/ 11 1026.7
BURNS HARBOR     NOT AVBL
MICHIGAN CITY    0200            27  160/  8/ 12   N/A
$$

ABBREVIATIONS USED IN REMARKS
   TC - TEMPERATURE IN CELSIUS
  WCI - WIND CHILL INDEX
   HX - HEAT INDEX
  VSB - VISIBILITY
$$



USA.gov is the U.S. government's official web portal to all federal, state and local government web resources and services.